Weather Roundup
Issued by NWS Corpus Christi, TX

Home | Current Version | Previous Version | Text Only | Print | Product List | Glossary On
Versions: 1 2 3 4 5 6 7 8 9 10 11 12 13 14 15 16 17 18 19 20 21 22 23 24 25 26 27 28 29 30 31 32 33 34 35 36 37 38 39 40 41 42 43 44 45 46 47 48 49 50
000
ASUS44 KCRP 281210
HRRCRP

SOUTH TEXAS REGIONAL WEATHER ROUNDUP
NATIONAL WEATHER SERVICE CORPUS CHRISTI TX
700 AM CDT TUE APR 28 2015


TXZ229>244-281300-
...CORPUS CHRISTI AREA OBSERVATIONS...

CITY           SKY/WX    TMP DP  RH WIND       PRES   REMARKS
CORPUS CHRISTI RAIN      68  62  81 N18       29.88R
NAS CORPUS CHR CLOUDY    72  69  90 N17       29.86R
ROCKPORT       CLOUDY    71  67  87 N8        29.85R
KINGSVILLE NAS CLOUDY    70  64  83 NW14G23   29.89R
ALICE          PTCLDY    67  54  63 NW15      29.90R
FALFURRIAS     PTCLDY    67  53  59 NW20G25   29.90R
$$

...VICTORIA AREA OBSERVATIONS...

CITY           SKY/WX    TMP DP  RH WIND       PRES   REMARKS
VICTORIA       CLOUDY    66  63  90 N15G22    29.87R
BEEVILLE       CLOUDY    65  60  82 NW9G17    29.90R
PLEASANTON     CLEAR     58  46  63 NW16      29.96R
SAN ANTONIO    CLEAR     57  45  64 NW10      29.95R
$$

...LAREDO AREA OBSERVATIONS...

CITY           SKY/WX    TMP DP  RH WIND       PRES   REMARKS
LAREDO         CLEAR     60  40  47 NW28G37   30.02R
COTULLA        CLEAR     58  42  55 NW18G24   29.99R
DEL RIO        MOCLDY    55  39  54 W17       30.07R
MCALLEN        CLEAR     68  54  60 NW14      29.90R
HEBBRONVILLE     N/A     61  42  49 NW22G31   29.95R
$$

...OTHER TEXAS OBSERVATIONS...

CITY           SKY/WX    TMP DP  RH WIND       PRES   REMARKS
BROWNSVILLE    CLOUDY    73  70  90 N10       29.84R
HOUSTON        MOCLDY    63  61  93 NW5       29.85R
COL. STATION   LGT RAIN  62  60  93 NW10      29.88R FOG
AUSTIN         CLOUDY    62  54  74 NW9G17    29.91R
WACO           CLOUDY    53  52  96 N14       29.94R FOG
FORT WORTH     CLOUDY    54  48  80 N16       29.98R
WICHITA FALLS  CLOUDY    51  47  86 N16       30.08R
LUBBOCK        CLOUDY    44  41  89 N16G25    30.17R
EL PASO        PTCLDY    46  30  53 CALM      30.23R
$$

...MARINE OBSERVATIONS...

STATION/POSITION TIME  SKY/WX   TEMP    WIND        PRES    VSBY  WAVE   SWELL
                                AIR SEA DIR/SP/G                  HT/PER HT/PER
                 (UTC)          (F)     (DEG/KT/KT) (MB)    (MI)  (FT/S) (FT/S)
PORT ARANSAS     1200            71 76  360/ 11/ 13 1011.3R
BUOY 90 E PORT A 1150            74 76   20/ 14/ 17 1009.0R         6/ 8   3/ 8
BUOY 45 SE BAFFI 1150            74 75  360/ 14/ 14 1009.4R         4/ 7   2/ 7
BUOY 200 E PT IS 1150            80 79  320/  6/  8 1005.6R         5/ 7   5/ 7
BUOY 15 E GALVES 1150            68 74   40/ 10/ 14 1008.4R         4/ 7   3/ 7
$$



USA.gov is the U.S. government's official web portal to all federal, state and local government web resources and services.